Location: Middelsbur
(53.6609°N, 7.5020°E)
Time: 13:22:07
(UTC+00:00)

Cosmos 2151 - Pass Details

Date: 06 July 2020
Orbit: 580 x 602 km, 82.5° (Epoch: 06 August)

Event Time Altitude Azimuth Distance (km) Brightness Sun altitude
Exits shadow 21:55:40 15° 147° (SSE) 1,632 4.6 -10.8°
Maximum altitude 21:58:37 32° 91° (E) 1,030 4.0 -11.0°
Drops below altitude 10° 22:02:26 10° 28° (NNE) 1,941 6.2 -11.2°
Sets 22:04:48 0° 18° (NNE) 2,844 7.3 -11.3°
